Torna al catalogo

SL-16 DEB

AttivoLEO
NORAD 23418·DEBRIS·🇷🇺 Russia

Lanciato Nov 24, 1994 da Baikonur Cosmodrome

Loading…

Prossimi Passaggi (prossime 24 ore)

TLE

ObsoletoSource: Space-Track

Epoca: Sep 7, 2026, 16:22 UTC

1 23418U 94077J   26250.68244545  .00000231  00000-0  15150-3 0  9999
2 23418  71.0064 358.8392 0074076  52.9628 307.8238 14.10684656675080

Traccia SL-16 DEB in tempo reale con AllMySat

Download on the App Store